EEL RIVER CAMP CA US current weather conditions

sailwx.info

Air temperature 10.0° C
Dewpoint 8.3° C

Last reported at 2015-May-26 10:28 UTC.
Time now 2015-May-26 11:41 UTC

Location: N 40°08' W 123°49'.
View on Google Maps.

See reports from other nearby stations

  
Tides and Currents Weather Stations Pressure Air Temp Water Temp Dewpoint Dewpoint Depression Visibility Wind Speed Wind Dir Waves Ship Positions
date/time (UTC)wind fromknots sea level pressurealtimeterstation pressurevisibilityair tempwater tempwave heightnotes
2015-May-26 10:28 10.0
2015-May-26 09:28 8.3
2015-May-26 08:28 8.3
2015-May-26 07:28 9.4
2015-May-26 06:28 001 0 gusting 6 10.6
2015-May-26 05:28 061 4 gusting 10 12.8
2015-May-26 04:28 072 4 gusting 10 15.6
2015-May-26 03:28 067 3 gusting 6 18.9
2015-May-26 02:28 027 3 gusting 12 22.2
2015-May-26 01:28 350 6 gusting 13 24.4
2015-May-26 00:28 346 4 gusting 11 26.1
2015-May-25 23:28 006 6 gusting 14 26.1
2015-May-25 22:28 069 6 gusting 13 26.7
2015-May-25 21:28 078 4 gusting 9 27.2
2015-May-25 20:28 069 5 gusting 7 25.6
2015-May-25 19:28 070 3 gusting 7 23.3
2015-May-25 18:28 073 3 gusting 8 20.6
2015-May-25 17:28 076 3 gusting 6 17.2
2015-May-25 16:28 065 3 gusting 6 14.4
2015-May-25 15:28 060 2 gusting 6 12.2
2015-May-25 14:28 069 1 gusting 5 11.1
2015-May-25 13:28 053 3 gusting 6 10.6
2015-May-25 12:28 042 3 gusting 6 10.6
2015-May-25 11:28 034 3 gusting 8 11.1
2015-May-25 10:28 049 3 gusting 7 11.1
2015-May-25 09:28 041 5 gusting 10 11.1
2015-May-25 08:28 051 6 gusting 9 11.1
2015-May-25 07:28 039 5 gusting 8 11.7
2015-May-25 06:28 032 3 gusting 9 11.7
2015-May-25 05:28 049 4 gusting 10 12.2
2015-May-25 04:28 050 6 gusting 12 13.3
2015-May-25 03:28 088 5 gusting 10 16.1
2015-May-25 02:28 040 6 gusting 10 20.6
2015-May-25 01:28 037 6 gusting 13 22.2
2015-May-25 00:28 041 4 gusting 13 24.4
2015-May-24 23:28 039 7 gusting 14 25.0
2015-May-24 22:28 039 7 gusting 15 25.6
2015-May-24 21:28 054 7 gusting 17 25.0
2015-May-24 20:28 055 8 gusting 15 23.3
2015-May-24 19:28 060 6 gusting 13 22.8
2015-May-24 18:28 061 6 gusting 11 20.6
2015-May-24 17:28 050 6 gusting 13 17.8
2015-May-24 16:28 055 6 gusting 12 15.6
2015-May-24 15:28 041 6 gusting 8 13.9
2015-May-24 14:28 028 3 gusting 9 11.7
2015-May-24 13:28 047 6 gusting 12 11.1
2015-May-24 12:28 034 6 gusting 10 11.1
2015-May-24 11:28 036 5 gusting 12 11.7